QPF
0.00 0.00 0.00 0.00 0.00 0.00 0.00 0.00 0.00 0.00 0.00 0.00 0.00 0.00 0.00 0.02 0.05 0.11 0.01 0.00 0.00 0.00 0.00 0.00 0.00 0.00 0.00 0.00 0.00 0.00 0.01 0.00 0.00 0.00 0.00 0.00 0.00 0.00 0.01 0.01 0.01 0.00 0.00 0.00 0.00 0.00 0.00 0.00 0.00
0.00 0.00 0.00 0.00 0.00 0.00 0.00 0.00 0.00 0.00 0.00 0.00 0.00 0.00 0.00 0.01 0.00 0.01 0.00 0.00 0.00 0.00 0.00 0.00 0.00 0.00 0.00 0.00 0.00 0.00 0.00 0.00 0.00 0.00 0.00 0.00 0.00 0.00 0.01 0.01 0.00 0.00 0.00 0.00 0.00 0.00 0.00 0.00 0.00
0.00 0.00 0.00 0.00 0.00 0.00 0.00 0.00 0.00 0.00 0.00 0.00 0.00 0.00 0.04 0.08 0.01 0.00 0.00 0.00 0.00 0.00 0.00 0.00 0.00 0.00 0.00 0.00 0.00 0.00 0.00 0.00 0.00 0.00 0.01 0.00 0.00 0.00 0.01 0.00 0.00 0.00 0.00 0.00 0.00 0.00 0.00 0.00 0.00
0.00 0.00 0.00 0.00 0.00 0.00 0.00 0.00 0.00 0.00 0.00 0.00 0.00 0.00 0.00 0.01 0.00 0.01 0.00 0.00 0.00 0.00 0.00 0.00 0.00 0.00 0.00 0.00 0.00 0.00 0.00 0.00 0.00 0.00 0.01 0.01 0.00 0.00 0.00 0.00 0.00 0.00 0.00 0.00 0.00 0.00 0.00 0.00 0.00
0.00 0.00 0.00 0.00 0.00 0.00 0.00 0.00 0.00 0.00 0.00 0.00 0.00 0.00 0.00 0.00 0.00 0.00 0.00 0.00 0.00 0.00 0.00 0.00 0.00 0.00 0.00 0.00 0.00 0.00 0.00 0.00 0.00 0.00 0.00 0.01 0.01 0.00 0.00 0.00 0.00 0.00 0.00 0.00 0.00 0.00 0.00 0.00 0.00
0.00 0.00 0.00 0.00 0.00 0.00 0.00 0.00 0.00 0.00 0.00 0.00 0.00 0.00 0.01 0.00 0.00 0.00 0.00 0.00 0.00 0.00 0.00 0.00 0.00 0.00 0.00 0.00 0.00 0.00 0.00 0.00 0.00 0.00 0.01 0.01 0.00 0.00 0.00 0.00 0.00 0.00 0.00 0.00 0.00 0.00 0.00 0.00 0.00
0.00 0.00 0.00 0.00 0.00 0.00 0.00 0.00 0.00 0.00 0.00 0.00 0.00 0.00 0.01 0.00 0.00 0.00 0.00 0.00 0.00 0.00 0.00 0.00 0.00 0.00 0.00 0.00 0.00 0.00 0.00 0.00 0.00 0.00 0.01 0.00 0.00 0.00 0.00 0.00 0.00 0.00 0.00 0.00 0.00 0.00 0.00 0.00 0.00
0.00 0.00 0.00 0.00 0.00 0.00 0.00 0.00 0.00 0.00 0.00 0.00 0.00 0.00 0.00 0.00 0.00 0.00 0.00 0.00 0.00 0.00 0.00 0.00 0.00 0.00 0.00 0.00 0.00 0.00 0.00 0.00 0.00 0.01 0.01 0.00 0.00 0.00 0.00 0.00 0.00 0.00 0.00 0.00 0.00 0.00 0.00 0.00 0.00
0.00 0.00 0.00 0.00 0.00 0.00 0.00 0.00 0.00 0.00 0.00 0.00 0.00 0.00 0.00 0.00 0.00 0.00 0.00 0.00 0.00 0.00 0.00 0.00 0.00 0.00 0.00 0.00 0.00 0.00 0.00 0.00 0.00 0.01 0.00 0.00 0.00 0.00 0.00 0.00 0.00 0.00 0.00 0.00 0.00 0.00 0.00 0.00 0.00
0.00 0.00 0.00 0.00 0.00 0.00 0.00 0.00 0.00 0.00 0.00 0.00 0.00 0.00 0.00 0.00 0.00 0.00 0.00 0.00 0.01 0.01 0.01 0.00 0.00 0.00 0.00 0.00 0.00 0.00 0.00 0.00 0.00 0.00 0.00 0.02 0.02 0.01 0.00 0.00 0.00 0.00 0.00 0.00 0.00 0.00 0.00 0.00 0.00
0.00 0.00 0.00 0.00 0.00 0.00 0.00 0.00 0.00 0.00 0.00 0.00 0.00 0.00 0.00 0.00 0.00 0.00 0.00 0.00 0.01 0.01 0.02 0.01 0.00 0.00 0.00 0.00 0.00 0.00 0.00 0.00 0.00 0.01 0.03 0.09 0.00 0.00 0.00 0.00 0.00 0.00 0.00 0.00 0.00 0.00 0.00 0.00 0.00
0.00 0.00 0.00 0.00 0.00 0.00 0.00 0.00 0.00 0.00 0.00 0.00 0.00 0.00 0.00 0.00 0.00 0.01 0.01 0.00 0.01 0.01 0.02 0.01 0.00 0.01 0.00 0.00 0.00 0.00 0.00 0.00 0.00 0.00 0.04 0.05 0.00 0.00 0.00 0.00 0.00 0.00 0.00 0.00 0.00 0.00 0.00 0.00 0.00
0.00 0.00 0.00 0.00 0.00 0.00 0.00 0.00 0.00 0.00 0.00 0.00 0.00 0.00 0.00 0.00 0.00 0.00 0.00 0.01 0.00 0.02 0.04 0.01 0.00 0.01 0.00 0.00 0.00 0.00 0.00 0.00 0.00 0.00 0.01 0.01 0.00 0.00 0.00 0.00 0.00 0.00 0.00 0.00 0.00 0.00 0.00 0.00 0.00
0.00 0.00 0.00 0.00 0.00 0.00 0.00 0.00 0.00 0.00 0.00 0.00 0.00 0.00 0.00 0.00 0.00 0.01 0.02 0.03 0.00 0.01 0.02 0.02 0.00 0.00 0.00 0.00 0.00 0.00 0.00 0.00 0.00 0.00 0.00 0.00 0.00 0.00 0.01 0.01 0.00 0.00 0.00 0.00 0.00 0.00 0.00 0.00 0.00
0.00 0.00 0.00 0.00 0.00 0.00 0.00 0.00 0.00 0.00 0.00 0.00 0.00 0.00 0.00 0.00 0.00 0.00 0.00 0.01 0.00 0.00 0.02 0.02 0.00 0.00 0.00 0.00 0.00 0.00 0.00 0.00 0.00 0.00 0.00 0.00 0.01 0.00 0.00 0.01 0.00 0.00 0.00 0.00 0.00 0.00 0.00 0.00 0.00
0.00 0.00 0.00 0.00 0.00 0.00 0.00 0.00 0.00 0.00 0.00 0.00 0.00 0.00 0.00 0.00 0.00 0.00 0.00 0.00 0.00 0.00 0.01 0.01 0.00 0.00 0.00 0.00 0.00 0.00 0.00 0.00 0.00 0.00 0.00 0.00 0.01 0.00 0.00 0.01 0.00 0.00 0.00 0.00 0.00 0.00 0.00 0.00 0.00
0.00 0.00 0.00 0.00 0.00 0.00 0.00 0.00 0.00 0.00 0.00 0.00 0.00 0.00 0.00 0.00 0.00 0.00 0.00 0.00 0.00 0.00 0.01 0.01 0.01 0.01 0.00 0.00 0.00 0.00 0.00 0.00 0.00 0.00 0.00 0.00 0.01 0.00 0.00 0.01 0.00 0.00 0.00 0.00 0.00 0.00 0.00 0.00 0.00
0.00 0.00 0.00 0.00 0.00 0.00 0.00 0.00 0.00 0.00 0.00 0.00 0.00 0.00 0.00 0.00 0.00 0.00 0.00 0.00 0.00 0.01 0.01 0.02 0.01 0.01 0.00 0.02 0.03 0.01 0.00 0.00 0.00 0.00 0.00 0.00 0.01 0.01 0.01 0.01 0.00 0.00 0.00 0.00 0.00 0.00 0.00 0.00 0.00
0.00 0.00 0.00 0.00 0.00 0.00 0.00 0.00 0.00 0.00 0.00 0.00 0.00 0.00 0.00 0.00 0.00 0.00 0.00 0.01 0.00 0.00 0.01 0.03 0.07 0.01 0.01 0.05 0.07 0.04 0.00 0.00 0.00 0.00 0.00 0.00 0.00 0.01 0.01 0.00 0.00 0.00 0.00 0.00 0.00 0.00 0.00 0.00 0.00
0.00 0.00 0.00 0.00 0.00 0.00 0.00 0.00 0.00 0.00 0.00 0.00 0.00 0.00 0.00 0.00 0.00 0.00 0.00 0.03 0.01 0.00 0.00 0.02 0.03 0.00 0.00 0.06 0.08 0.03 0.01 0.00 0.00 0.00 0.00 0.00 0.00 0.01 0.01 0.01 0.00 0.00 0.00 0.00 0.00 0.00 0.00 0.00 0.00
0.00 0.00 0.00 0.00 0.00 0.00 0.00 0.00 0.00 0.00 0.00 0.00 0.00 0.00 0.00 0.00 0.00 0.00 0.00 0.01 0.03 0.02 0.00 0.02 0.02 0.01 0.03 0.02 0.04 0.01 0.00 0.00 0.00 0.00 0.00 0.00 0.00 0.01 0.01 0.01 0.00 0.00 0.00 0.00 0.00 0.00 0.00 0.00 0.00
0.00 0.00 0.00 0.00 0.00 0.00 0.00 0.00 0.00 0.00 0.00 0.00 0.00 0.00 0.00 0.00 0.00 0.00 0.00 0.00 0.01 0.02 0.00 0.00 0.02 0.02 0.02 0.04 0.03 0.01 0.00 0.00 0.00 0.00 0.00 0.00 0.00 0.00 0.01 0.02 0.00 0.00 0.00 0.00 0.00 0.00 0.00 0.00 0.00
0.00 0.00 0.00 0.00 0.00 0.00 0.00 0.00 0.00 0.00 0.00 0.00 0.00 0.00 0.00 0.00 0.00 0.00 0.00 0.00 0.00 0.01 0.01 0.02 0.02 0.02 0.02 0.03 0.01 0.03 0.00 0.01 0.00 0.00 0.00 0.00 0.00 0.00 0.01 0.01 0.00 0.00 0.00 0.00 0.00 0.00 0.00 0.00 0.00
0.00 0.00 0.00 0.00 0.00 0.00 0.00 0.00 0.00 0.00 0.00 0.00 0.00 0.00 0.00 0.00 0.00 0.00 0.00 0.00 0.00 0.00 0.01 0.02 0.04 0.01 0.00 0.01 0.00 0.00 0.01 0.00 0.00 0.00 0.00 0.00 0.00 0.00 0.00 0.00 0.00 0.00 0.00 0.00 0.00 0.00 0.00 0.00 0.00
0.01 0.02 0.00 0.00 0.00 0.00 0.00 0.00 0.00 0.00 0.00 0.00 0.00 0.00 0.00 0.00 0.00 0.00 0.00 0.00 0.00 0.00 0.02 0.04 0.02 0.02 0.00 0.00 0.00 0.00 0.00 0.02 0.01 0.00 0.00 0.00 0.00 0.00 0.00 0.00 0.00 0.00 0.00 0.01 0.01 0.00 0.00 0.00 0.00
0.01 0.03 0.01 0.00 0.01 0.00 0.00 0.00 0.00 0.00 0.00 0.00 0.00 0.00 0.00 0.00 0.00 0.00 0.00 0.00 0.00 0.00 0.01 0.07 0.07 0.01 0.00 0.00 0.00 0.00 0.00 0.00 0.00 0.00 0.00 0.00 0.00 0.00 0.00 0.00 0.00 0.00 0.01 0.02 0.02 0.00 0.00 0.00 0.00
0.02 0.02 0.00 0.01 0.00 0.01 0.00 0.00 0.01 0.00 0.00 0.00 0.00 0.00 0.00 0.00 0.00 0.00 0.00 0.00 0.00 0.00 0.00 0.01 0.10 0.08 0.02 0.00 0.00 0.00 0.00 0.00 0.00 0.00 0.00 0.00 0.01 0.03 0.02 0.00 0.00 0.00 0.00 0.00 0.00 0.00 0.00 0.00 0.00
0.01 0.02 0.04 0.01 0.01 0.02 0.01 0.03 0.04 0.01 0.01 0.00 0.00 0.00 0.00 0.00 0.00 0.00 0.00 0.00 0.00 0.00 0.00 0.00 0.01 0.05 0.06 0.01 0.00 0.00 0.00 0.00 0.00 0.00 0.00 0.00 0.00 0.05 0.11 0.03 0.00 0.00 0.00 0.00 0.00 0.01 0.01 0.00 0.00
0.03 0.01 0.02 0.01 0.00 0.03 0.03 0.02 0.03 0.01 0.01 0.00 0.00 0.00 0.00 0.00 0.00 0.00 0.00 0.00 0.00 0.00 0.00 0.00 0.00 0.00 0.05 0.06 0.01 0.00 0.00 0.01 0.01 0.01 0.00 0.00 0.00 0.02 0.11 0.13 0.02 0.00 0.00 0.00 0.00 0.01 0.01 0.00 0.00
0.01 0.05 0.04 0.01 0.01 0.02 0.02 0.03 0.00 0.00 0.00 0.00 0.00 0.00 0.00 0.00 0.00 0.00 0.00 0.00 0.00 0.00 0.00 0.00 0.00 0.00 0.00 0.04 0.04 0.01 0.00 0.00 0.01 0.00 0.00 0.00 0.00 0.01 0.03 0.14 0.07 0.02 0.00 0.00 0.00 0.00 0.00 0.00 0.00
MSLP
1010.61 1009.18 1008.24 1007.39 1006.96 1004.96 1003.06 1001.24 1001.05 1000.71 1000.71 1001.27 1002.53 1003.38 1005.62 1008.30 1010.30 1009.96 1009.03 1009.97 1011.22 1012.46 1013.38 1013.87 1014.71 1015.42 1015.89 1016.55 1017.10 1017.66 1017.93 1018.31 1018.65 1019.00 1019.31 1019.49 1019.78 1020.10 1020.31 1020.48 1020.71 1021.08 1021.40 1021.58 1021.89 1022.12 1022.42 1022.57 1022.57
1010.61 1009.52 1008.09 1007.17 1006.09 1004.36 1002.64 1001.37 1001.69 1001.23 1001.00 1001.54 1002.25 1003.28 1005.43 1008.44 1008.82 1009.41 1009.37 1010.45 1011.80 1012.81 1013.10 1014.07 1014.92 1015.49 1016.22 1016.71 1017.35 1017.85 1018.32 1018.56 1019.06 1019.40 1019.74 1019.94 1020.30 1020.63 1020.90 1021.03 1021.41 1021.66 1021.99 1022.17 1022.50 1022.66 1022.88 1023.05 1023.17
1010.77 1009.40 1008.23 1006.56 1005.23 1003.98 1002.69 1001.72 1002.18 1001.77 1001.98 1001.94 1002.22 1003.62 1006.96 1008.86 1007.14 1008.34 1009.35 1010.66 1012.16 1012.70 1013.43 1014.34 1015.10 1015.68 1016.37 1016.99 1017.64 1018.14 1018.51 1018.95 1019.35 1019.81 1020.16 1020.42 1020.87 1021.17 1021.43 1021.64 1022.02 1022.27 1022.54 1022.81 1023.14 1023.20 1023.46 1023.62 1023.76
1009.15 1008.12 1007.75 1005.97 1004.41 1003.25 1002.36 1001.72 1002.23 1002.42 1002.68 1002.65 1002.81 1005.45 1007.44 1007.09 1007.83 1008.47 1009.11 1010.60 1012.01 1012.75 1013.75 1015.10 1015.35 1015.93 1016.47 1017.25 1017.95 1018.44 1018.83 1019.31 1019.67 1020.18 1020.62 1020.87 1021.36 1021.69 1021.99 1022.27 1022.62 1022.85 1023.17 1023.42 1023.68 1023.81 1024.12 1024.18 1024.17
1008.61 1007.83 1006.50 1005.29 1004.08 1003.17 1001.99 1001.96 1002.04 1002.37 1002.49 1002.98 1003.73 1005.45 1007.12 1008.00 1008.39 1008.62 1009.31 1010.49 1011.73 1013.15 1014.56 1015.57 1015.72 1016.29 1016.75 1017.44 1018.15 1018.67 1019.15 1019.64 1020.10 1020.54 1021.10 1021.36 1021.80 1022.19 1022.56 1022.91 1023.28 1023.47 1023.81 1024.08 1024.19 1024.35 1024.59 1024.66 1024.54
1008.08 1007.25 1006.28 1004.75 1003.55 1002.58 1001.81 1001.49 1001.59 1002.29 1002.80 1003.44 1004.39 1005.54 1008.14 1008.28 1008.32 1008.97 1009.78 1010.69 1012.24 1013.54 1014.92 1015.84 1016.39 1016.77 1017.10 1017.70 1018.38 1018.93 1019.41 1019.99 1020.51 1020.99 1021.55 1021.92 1022.37 1022.76 1023.09 1023.46 1023.87 1024.09 1024.46 1024.58 1024.74 1024.89 1025.02 1025.05 1024.78
1008.10 1006.80 1005.64 1004.52 1003.10 1001.69 1000.99 1001.04 1001.64 1002.54 1003.34 1003.75 1004.39 1005.55 1008.48 1008.46 1008.58 1009.17 1010.21 1011.48 1012.88 1013.85 1015.10 1016.02 1016.70 1017.31 1017.77 1018.07 1018.51 1019.09 1019.64 1020.29 1020.81 1021.44 1021.95 1022.44 1022.89 1023.30 1023.68 1024.06 1024.40 1024.66 1024.92 1025.10 1025.29 1025.42 1025.42 1025.42 1025.36
1007.60 1006.95 1005.80 1004.46 1003.21 1001.99 1001.22 1001.12 1002.10 1003.01 1003.71 1004.37 1004.53 1005.38 1007.94 1008.60 1008.88 1009.64 1011.22 1012.43 1013.24 1014.28 1014.96 1015.97 1016.81 1017.56 1018.19 1018.63 1018.81 1019.34 1019.94 1020.64 1021.22 1021.82 1022.31 1022.77 1023.32 1023.78 1024.23 1024.57 1024.92 1025.15 1025.37 1025.59 1025.73 1025.86 1025.91 1025.83 1025.79
1007.43 1007.11 1005.64 1004.49 1003.39 1002.22 1001.92 1002.33 1002.97 1003.82 1004.50 1004.74 1005.43 1006.28 1007.98 1008.87 1009.65 1010.30 1011.96 1013.09 1013.70 1014.50 1015.36 1016.15 1016.84 1017.52 1018.15 1018.83 1019.27 1019.58 1020.18 1020.88 1021.58 1022.17 1022.57 1022.94 1023.48 1024.16 1024.56 1025.11 1025.41 1025.62 1025.87 1025.99 1026.05 1026.15 1026.17 1026.24 1026.19
1007.48 1006.73 1005.54 1004.46 1003.20 1002.71 1002.74 1003.00 1003.36 1004.33 1004.99 1004.93 1006.12 1007.81 1008.92 1009.29 1010.14 1011.21 1012.07 1013.34 1014.19 1014.77 1015.69 1016.32 1016.71 1017.25 1017.92 1018.53 1019.40 1019.70 1020.36 1020.91 1021.50 1022.15 1022.45 1022.81 1023.65 1024.26 1024.97 1025.68 1025.96 1026.11 1026.27 1026.32 1026.27 1026.07 1025.93 1025.92 1026.19
1006.91 1006.38 1005.66 1004.46 1004.11 1003.57 1003.52 1003.52 1003.82 1004.28 1004.85 1004.93 1005.74 1007.78 1009.38 1010.19 1010.91 1012.00 1012.64 1013.49 1014.15 1014.83 1015.56 1016.25 1016.53 1017.06 1017.64 1018.50 1019.15 1019.73 1020.24 1020.76 1021.35 1021.87 1022.35 1023.28 1023.86 1024.70 1025.35 1026.09 1026.37 1026.54 1026.65 1026.66 1026.69 1026.72 1026.41 1025.74 1025.94
1006.68 1006.20 1005.94 1005.10 1004.37 1004.76 1004.79 1004.76 1004.22 1004.74 1005.25 1005.27 1005.28 1007.11 1009.35 1010.88 1011.74 1012.22 1012.78 1013.47 1014.06 1014.69 1015.37 1016.05 1016.31 1016.82 1017.36 1018.33 1018.72 1019.31 1019.77 1020.33 1020.91 1021.66 1022.49 1023.30 1023.94 1024.64 1025.30 1025.81 1026.07 1026.28 1026.31 1026.57 1026.55 1026.70 1026.28 1026.09 1026.18
1006.68 1006.09 1005.88 1005.44 1005.14 1005.29 1005.84 1005.58 1005.09 1005.22 1005.70 1006.40 1006.74 1007.82 1009.31 1010.85 1012.06 1012.58 1012.94 1013.44 1013.94 1014.57 1015.23 1015.86 1016.10 1016.65 1017.30 1018.15 1018.39 1018.87 1019.24 1019.89 1020.50 1021.31 1022.30 1022.96 1023.82 1024.53 1024.94 1025.38 1025.62 1025.82 1025.75 1026.00 1026.25 1026.39 1026.61 1026.78 1026.72
1007.49 1006.68 1006.16 1006.05 1005.86 1005.52 1005.95 1006.09 1005.73 1005.55 1005.84 1006.39 1007.16 1007.98 1009.25 1010.51 1011.76 1012.44 1012.72 1013.16 1013.67 1014.48 1015.12 1015.59 1016.15 1016.41 1017.02 1017.74 1018.22 1018.58 1018.95 1019.51 1020.34 1021.00 1022.00 1022.69 1023.39 1024.12 1024.72 1025.15 1025.38 1025.46 1025.40 1025.77 1026.27 1026.68 1027.05 1027.26 1027.34
1008.44 1007.76 1006.86 1006.74 1006.21 1005.61 1006.19 1005.74 1005.50 1005.67 1005.96 1006.33 1006.97 1007.67 1008.16 1009.22 1010.67 1011.69 1012.18 1012.72 1013.12 1013.81 1014.74 1015.48 1016.02 1016.37 1016.92 1017.34 1018.03 1018.39 1018.80 1019.28 1020.12 1020.73 1021.61 1022.42 1023.16 1023.93 1024.50 1025.04 1025.37 1025.42 1025.36 1025.85 1026.34 1026.74 1027.15 1027.53 1027.65
1009.21 1008.32 1007.02 1006.63 1006.25 1005.79 1006.12 1004.21 1004.91 1005.44 1005.40 1005.79 1006.60 1007.17 1007.62 1008.07 1009.06 1010.50 1011.58 1012.49 1012.97 1013.54 1014.55 1015.32 1015.85 1016.62 1017.14 1017.62 1018.14 1018.71 1019.13 1019.48 1019.82 1020.87 1021.54 1022.22 1023.18 1023.83 1024.35 1024.92 1025.23 1025.20 1025.45 1026.03 1026.46 1026.83 1027.32 1027.71 1028.16
1009.19 1007.84 1006.85 1006.10 1005.61 1005.20 1005.07 1004.15 1004.82 1004.30 1004.35 1004.85 1005.87 1006.44 1007.06 1007.64 1008.13 1009.28 1010.63 1011.87 1012.85 1013.41 1014.17 1015.15 1015.92 1016.55 1017.13 1017.79 1018.25 1019.04 1019.54 1019.81 1020.09 1020.83 1021.67 1022.25 1023.11 1023.71 1024.25 1024.76 1025.03 1025.12 1025.54 1026.09 1026.34 1026.80 1027.14 1027.81 1028.36
1008.81 1007.43 1006.62 1005.50 1004.98 1004.21 1003.88 1003.48 1004.52 1003.84 1003.59 1004.14 1004.86 1005.68 1006.35 1006.91 1007.74 1008.29 1009.68 1011.06 1012.29 1013.30 1014.03 1014.76 1015.92 1016.60 1017.35 1017.75 1018.58 1019.04 1019.55 1019.84 1020.15 1020.80 1021.68 1022.23 1022.95 1023.41 1024.06 1024.48 1024.84 1024.99 1025.48 1026.01 1026.24 1026.74 1027.16 1027.68 1028.20
1009.50 1008.44 1006.96 1005.44 1004.48 1003.98 1003.01 1002.86 1003.68 1003.86 1004.25 1004.35 1004.74 1004.93 1005.64 1006.56 1006.94 1007.89 1008.84 1010.31 1011.85 1013.07 1014.12 1014.79 1015.60 1016.41 1017.08 1017.95 1018.74 1019.30 1019.77 1019.92 1020.23 1020.72 1021.44 1022.17 1022.70 1023.15 1023.65 1024.14 1024.69 1024.88 1025.37 1025.87 1026.15 1026.73 1027.21 1027.67 1028.12
1011.36 1009.91 1008.14 1006.66 1005.47 1004.74 1003.22 1003.19 1003.40 1003.57 1003.73 1004.36 1004.59 1004.63 1005.12 1006.23 1007.13 1007.51 1008.68 1010.29 1011.62 1012.67 1013.73 1014.95 1015.54 1016.19 1016.72 1017.65 1018.54 1019.20 1019.43 1019.41 1019.87 1020.40 1021.14 1021.69 1022.47 1023.02 1023.27 1023.78 1024.43 1024.71 1025.18 1025.70 1026.12 1026.57 1027.20 1027.65 1028.10
1012.78 1011.83 1010.39 1008.95 1007.36 1005.67 1004.97 1004.41 1004.15 1003.95 1003.66 1003.81 1004.34 1004.76 1005.24 1005.87 1006.85 1007.41 1008.52 1010.05 1011.31 1012.58 1013.60 1014.49 1015.43 1015.95 1016.51 1017.16 1018.34 1019.10 1019.51 1019.92 1019.22 1019.92 1020.62 1020.77 1021.55 1022.54 1022.97 1023.50 1024.03 1024.58 1024.89 1025.48 1025.93 1026.38 1026.84 1027.54 1027.95
1014.35 1013.90 1012.83 1011.45 1010.11 1008.00 1006.30 1005.19 1005.21 1005.01 1004.09 1003.48 1003.87 1004.50 1004.88 1005.47 1006.38 1007.24 1008.17 1009.42 1010.96 1011.96 1012.96 1014.03 1014.94 1015.66 1016.41 1017.05 1017.87 1018.24 1018.65 1019.26 1019.21 1018.93 1020.08 1020.54 1021.08 1021.81 1022.38 1022.94 1023.59 1024.27 1024.76 1025.27 1025.53 1026.01 1026.41 1026.97 1027.59
1015.45 1015.46 1014.82 1013.83 1012.21 1010.62 1008.20 1006.93 1005.13 1004.99 1004.90 1004.06 1003.71 1004.38 1005.14 1005.76 1006.42 1007.27 1007.98 1008.79 1009.55 1011.11 1012.30 1013.41 1014.36 1015.27 1016.10 1016.75 1017.29 1018.00 1018.43 1018.67 1018.60 1018.81 1019.61 1019.60 1019.87 1020.96 1021.64 1022.24 1023.06 1023.76 1024.42 1025.00 1025.35 1025.78 1026.17 1026.46 1026.89
1016.35 1016.29 1015.85 1015.20 1014.23 1011.98 1009.91 1008.51 1006.74 1005.32 1004.93 1004.25 1004.10 1004.33 1005.47 1006.13 1006.70 1007.39 1008.12 1008.74 1009.25 1010.35 1011.67 1012.82 1013.91 1014.99 1015.80 1016.57 1016.99 1017.40 1017.92 1018.33 1018.46 1018.55 1019.20 1019.36 1020.02 1020.19 1020.49 1021.42 1022.26 1022.97 1023.64 1024.39 1024.93 1025.37 1025.78 1026.11 1026.28
1017.64 1017.54 1016.60 1015.75 1014.67 1012.89 1011.81 1010.42 1008.87 1007.25 1007.00 1005.70 1004.51 1004.84 1006.08 1007.57 1008.12 1008.56 1008.98 1009.38 1009.80 1010.23 1011.20 1012.18 1013.27 1014.45 1015.30 1015.95 1016.57 1017.02 1017.33 1017.87 1018.24 1018.30 1018.42 1018.72 1019.27 1019.75 1019.94 1019.93 1021.03 1021.90 1022.68 1023.36 1024.09 1024.96 1025.52 1025.72 1025.86
1017.99 1018.10 1017.64 1016.25 1015.33 1014.22 1012.68 1011.12 1010.90 1011.49 1011.18 1009.48 1008.77 1008.76 1009.15 1010.10 1010.67 1010.88 1011.09 1011.33 1011.37 1011.32 1011.63 1012.05 1012.92 1013.66 1014.76 1015.37 1015.89 1016.38 1016.70 1017.22 1017.68 1018.01 1017.95 1018.07 1018.39 1018.87 1019.50 1020.19 1020.79 1020.87 1021.71 1022.66 1023.55 1024.23 1024.77 1025.09 1025.43
1018.27 1017.74 1017.62 1017.19 1016.36 1016.69 1013.92 1012.97 1013.67 1014.77 1014.62 1014.39 1013.83 1012.77 1012.31 1012.41 1012.69 1013.13 1013.22 1013.26 1013.03 1012.91 1012.71 1013.15 1013.12 1013.35 1014.08 1014.73 1015.36 1015.81 1016.23 1016.59 1016.91 1017.31 1017.68 1017.80 1017.98 1018.26 1018.91 1019.77 1020.36 1021.11 1021.01 1021.79 1022.77 1023.45 1023.83 1024.33 1024.78
1019.55 1018.93 1018.24 1018.60 1017.81 1016.87 1015.23 1016.39 1018.41 1018.75 1018.35 1017.44 1016.43 1015.18 1014.62 1014.63 1014.89 1014.60 1014.51 1014.69 1014.82 1014.62 1014.25 1013.82 1013.75 1013.45 1013.70 1014.33 1014.80 1015.26 1015.72 1016.16 1016.37 1016.77 1017.04 1017.27 1017.55 1017.68 1018.38 1019.09 1019.81 1020.45 1020.96 1021.10 1021.87 1022.56 1022.90 1023.58 1024.06
1019.39 1019.24 1018.78 1018.25 1018.11 1018.06 1017.79 1020.74 1021.91 1021.41 1020.85 1020.07 1018.35 1017.26 1017.31 1017.12 1017.09 1016.98 1016.83 1016.86 1016.76 1016.35 1015.67 1014.82 1014.18 1013.68 1013.54 1013.81 1014.19 1014.66 1015.01 1015.47 1015.99 1016.10 1016.33 1016.59 1016.95 1017.33 1017.57 1018.23 1019.15 1019.74 1020.40 1020.78 1021.31 1021.76 1022.21 1022.58 1023.16
1021.02 1020.15 1019.25 1019.51 1019.76 1019.75 1020.10 1023.28 1023.84 1023.19 1022.63 1021.70 1020.43 1019.90 1019.18 1018.73 1018.58 1018.44 1018.63 1018.70 1018.47 1018.06 1017.47 1016.45 1015.16 1014.34 1013.50 1013.13 1013.41 1013.81 1014.21 1014.41 1014.98 1015.27 1015.42 1015.88 1016.20 1016.63 1017.05 1017.40 1018.23 1018.59 1019.16 1019.89 1020.42 1020.98 1021.36 1021.68 1021.96
Thickness
5751 5764 5774 5769 5734 5749 5753 5779 5797 5795 5797 5809 5810 5797 5771 5749 5717 5709 5776 5775 5769 5761 5755 5752 5745 5739 5735 5731 5727 5724 5723 5720 5717 5715 5712 5710 5708 5706 5706 5705 5703 5700 5697 5696 5692 5690 5687 5684 5684
5746 5755 5762 5751 5725 5725 5752 5792 5772 5793 5802 5813 5815 5808 5776 5743 5753 5751 5763 5771 5761 5756 5756 5749 5743 5738 5732 5729 5725 5722 5719 5719 5714 5712 5709 5707 5704 5702 5701 5701 5698 5696 5693 5692 5688 5686 5683 5681 5679
5741 5752 5737 5735 5732 5725 5744 5779 5773 5789 5795 5798 5803 5803 5760 5697 5764 5769 5775 5768 5759 5756 5752 5746 5740 5736 5731 5727 5722 5719 5718 5715 5713 5709 5706 5704 5700 5698 5697 5696 5694 5692 5689 5687 5684 5683 5679 5677 5675
5741 5744 5739 5721 5727 5756 5767 5778 5776 5775 5783 5795 5798 5759 5760 5756 5764 5775 5781 5772 5760 5755 5748 5739 5737 5733 5730 5725 5719 5716 5715 5711 5710 5706 5702 5701 5696 5694 5692 5691 5689 5688 5684 5682 5680 5678 5674 5672 5671
5736 5730 5716 5719 5732 5755 5779 5779 5773 5772 5773 5781 5786 5760 5750 5764 5772 5776 5775 5771 5761 5751 5740 5733 5733 5730 5727 5722 5717 5714 5711 5708 5705 5703 5698 5697 5693 5691 5688 5687 5684 5682 5679 5677 5676 5673 5670 5668 5668
5715 5725 5703 5710 5733 5759 5776 5789 5780 5769 5775 5771 5772 5764 5739 5767 5770 5767 5767 5765 5759 5747 5735 5729 5726 5724 5723 5719 5714 5711 5708 5704 5701 5698 5694 5692 5689 5686 5685 5682 5679 5677 5673 5672 5671 5669 5667 5664 5665
5706 5711 5709 5720 5736 5759 5778 5793 5772 5762 5762 5758 5773 5758 5735 5753 5768 5768 5761 5756 5749 5741 5732 5725 5721 5719 5716 5714 5712 5708 5705 5701 5698 5694 5691 5688 5685 5682 5680 5677 5674 5672 5669 5667 5665 5664 5663 5661 5660
5717 5712 5706 5722 5728 5743 5779 5780 5774 5758 5751 5770 5772 5749 5726 5747 5760 5758 5749 5745 5743 5736 5731 5724 5719 5714 5710 5708 5707 5704 5701 5696 5693 5691 5688 5685 5681 5678 5675 5673 5670 5667 5664 5661 5660 5659 5659 5658 5656
5725 5694 5698 5717 5729 5749 5769 5754 5759 5763 5749 5755 5755 5751 5745 5749 5749 5748 5737 5731 5731 5729 5725 5720 5716 5712 5708 5703 5701 5701 5697 5693 5689 5686 5685 5683 5679 5674 5672 5668 5665 5662 5660 5657 5656 5656 5655 5653 5652
5702 5691 5705 5734 5749 5747 5754 5745 5747 5736 5736 5741 5738 5739 5739 5740 5736 5729 5726 5719 5718 5719 5717 5715 5714 5711 5707 5704 5698 5698 5694 5690 5687 5684 5683 5682 5677 5672 5668 5663 5660 5658 5656 5654 5653 5655 5655 5654 5650
5704 5690 5714 5729 5735 5741 5739 5738 5748 5732 5725 5740 5732 5726 5727 5725 5722 5717 5718 5715 5714 5714 5712 5712 5712 5710 5707 5702 5698 5695 5692 5689 5685 5684 5680 5678 5674 5668 5664 5659 5656 5655 5652 5650 5649 5648 5650 5653 5650
5690 5705 5710 5720 5729 5719 5721 5731 5731 5730 5729 5740 5746 5738 5725 5712 5709 5711 5712 5710 5711 5711 5710 5708 5709 5709 5707 5700 5699 5695 5693 5690 5686 5683 5678 5676 5671 5668 5664 5659 5657 5655 5654 5651 5649 5647 5648 5649 5647
5688 5698 5707 5714 5716 5710 5715 5711 5717 5719 5731 5728 5730 5726 5719 5709 5704 5706 5708 5708 5708 5705 5705 5705 5706 5706 5703 5698 5699 5696 5695 5691 5687 5684 5678 5675 5670 5667 5664 5660 5659 5657 5657 5653 5650 5647 5645 5642 5642
5680 5688 5692 5699 5701 5706 5699 5699 5707 5715 5725 5718 5718 5715 5711 5706 5701 5701 5703 5704 5704 5701 5701 5702 5701 5701 5702 5697 5696 5695 5694 5691 5686 5684 5678 5674 5671 5668 5663 5661 5660 5658 5658 5654 5649 5644 5640 5638 5637
5664 5659 5672 5681 5687 5692 5694 5685 5690 5709 5714 5709 5709 5711 5713 5711 5706 5701 5704 5703 5705 5703 5700 5697 5696 5695 5695 5694 5693 5692 5691 5691 5684 5683 5679 5675 5670 5666 5663 5659 5658 5657 5656 5652 5647 5642 5638 5635 5632
5638 5647 5642 5669 5675 5683 5678 5677 5697 5705 5707 5702 5701 5705 5708 5711 5711 5707 5704 5702 5703 5700 5696 5695 5695 5690 5688 5686 5686 5684 5685 5685 5685 5678 5676 5674 5667 5664 5661 5658 5656 5655 5654 5649 5645 5641 5637 5633 5629
5626 5622 5638 5651 5675 5675 5671 5673 5689 5707 5705 5699 5698 5700 5702 5704 5708 5709 5705 5701 5698 5698 5693 5690 5690 5686 5683 5682 5679 5677 5676 5677 5679 5674 5671 5669 5664 5662 5659 5656 5655 5654 5651 5647 5644 5640 5637 5631 5627
5611 5626 5632 5640 5662 5670 5668 5675 5677 5696 5699 5697 5697 5698 5697 5699 5701 5707 5706 5702 5697 5693 5691 5687 5683 5680 5676 5676 5676 5672 5671 5672 5674 5672 5667 5666 5661 5660 5657 5655 5653 5652 5649 5645 5642 5639 5635 5631 5626
5601 5606 5616 5640 5661 5658 5666 5672 5670 5681 5681 5683 5687 5693 5691 5693 5702 5703 5701 5701 5692 5687 5683 5681 5676 5676 5673 5670 5666 5665 5661 5664 5668 5669 5663 5661 5659 5658 5657 5654 5651 5650 5647 5644 5641 5637 5632 5628 5626
5558 5569 5590 5616 5637 5639 5654 5650 5660 5669 5675 5675 5679 5687 5686 5684 5687 5693 5693 5688 5687 5682 5679 5674 5671 5671 5671 5668 5662 5658 5657 5662 5664 5665 5660 5659 5657 5654 5655 5652 5649 5648 5645 5641 5639 5636 5630 5626 5623
5527 5535 5555 5570 5599 5618 5626 5618 5633 5653 5669 5670 5674 5678 5680 5676 5676 5680 5682 5676 5678 5674 5671 5670 5666 5666 5666 5665 5659 5650 5651 5651 5663 5662 5660 5658 5656 5652 5651 5649 5646 5645 5644 5640 5637 5634 5631 5623 5621
5484 5505 5513 5528 5544 5557 5605 5589 5608 5625 5642 5661 5660 5666 5670 5670 5670 5673 5674 5673 5668 5669 5669 5666 5663 5661 5659 5659 5656 5652 5652 5649 5655 5660 5657 5652 5651 5650 5649 5648 5644 5642 5640 5639 5636 5633 5631 5626 5620
5470 5474 5481 5488 5506 5531 5561 5572 5605 5624 5619 5640 5654 5653 5657 5658 5659 5660 5665 5669 5672 5668 5665 5662 5660 5657 5655 5653 5653 5649 5648 5649 5651 5653 5652 5653 5654 5651 5651 5648 5644 5641 5638 5635 5634 5630 5628 5627 5623
5467 5461 5460 5470 5483 5491 5533 5555 5578 5614 5624 5638 5649 5651 5645 5647 5648 5649 5654 5661 5665 5666 5662 5657 5654 5651 5650 5647 5649 5649 5646 5646 5647 5647 5646 5647 5645 5648 5651 5647 5645 5642 5639 5634 5632 5629 5627 5625 5625
5448 5440 5437 5441 5460 5481 5523 5535 5564 5613 5599 5620 5631 5639 5625 5606 5617 5625 5634 5641 5647 5651 5656 5654 5651 5647 5646 5645 5644 5644 5645 5643 5643 5645 5646 5646 5646 5644 5649 5652 5648 5644 5639 5636 5632 5627 5624 5623 5623
5441 5438 5428 5433 5457 5480 5517 5533 5565 5542 5546 5579 5588 5579 5577 5575 5586 5594 5600 5611 5621 5630 5638 5646 5642 5644 5641 5642 5642 5642 5643 5642 5641 5642 5645 5646 5647 5643 5641 5641 5639 5642 5639 5635 5631 5627 5624 5622 5622
5440 5442 5451 5446 5459 5425 5495 5533 5522 5509 5508 5515 5513 5533 5544 5552 5564 5572 5580 5588 5600 5608 5618 5625 5634 5638 5638 5638 5638 5638 5639 5640 5640 5640 5641 5644 5647 5642 5637 5635 5632 5630 5634 5633 5630 5627 5626 5624 5622
5414 5435 5430 5419 5425 5449 5501 5493 5451 5462 5465 5488 5502 5513 5521 5531 5541 5556 5565 5571 5579 5589 5600 5611 5622 5630 5633 5633 5634 5634 5635 5637 5638 5637 5639 5640 5640 5642 5638 5635 5629 5626 5625 5628 5628 5626 5625 5624 5622
5426 5429 5440 5455 5458 5446 5478 5426 5414 5419 5442 5444 5478 5493 5501 5511 5519 5526 5534 5545 5557 5568 5579 5594 5607 5619 5625 5628 5630 5631 5632 5633 5633 5635 5638 5640 5639 5638 5637 5633 5626 5623 5621 5622 5623 5624 5625 5625 5622
5423 5427 5449 5439 5442 5438 5436 5401 5406 5419 5432 5445 5463 5474 5485 5493 5498 5505 5511 5518 5529 5541 5555 5571 5589 5603 5616 5623 5627 5629 5630 5634 5634 5635 5638 5637 5638 5636 5635 5635 5627 5625 5625 5620 5622 5622 5624 5624 5623